{"data":{"norad_id":59699,"intl_designator":"2024-086T","name":"STARLINK-32102","alt_names":[],"object_type":"PAYLOAD","status":"ACTIVE","operator":null,"country":"US","launch_date":"2024-05-08","launch_site_code":"AFETR","launch_vehicle":null,"mission":null,"orbit_class":"UNKNOWN","rcs_meters":null,"size_class":null,"mass_kg":null,"dimensions":null,"purposes":["comms"],"wikipedia_slug":null,"has_3d_model":false,"image_url":null,"decayed_at":null,"tle_current":{"epoch":"2026-09-21T15:39:34.014528Z","epoch_age_seconds":71606,"freshness":"FRESH","line1":"1 59699U 24086T   26264.65247702  .00010065  00000+0  37478-3 0  9994","line2":"2 59699  43.0014  33.0712 0001315 275.1905  84.8797 15.27581175134088","mean_motion":15.27581175,"eccentricity":0.0001315,"inclination_deg":43.0014,"raan_deg":33.0712,"arg_perigee_deg":275.1905,"mean_anomaly_deg":84.8797,"bstar":0.00037478,"rev_number":13408,"period_min":94.266676204621,"perigee_km":482.14333216024,"apogee_km":483.94782317817,"semimajor_km":6861.1825776692,"source":"CELESTRAK","updated_at":"2026-09-22T09:00:49.055712Z"}}}